Regional Weather Roundup
Issued by NWS

Home | Current Version | Previous Version | Graphics & Text | Print | Product List | Glossary Off
Versions: 1 2 3 4 5 6 7 8 9 10 11 12 13 14 15 16 17 18 19 20 21 22 23 24 25 26 27 28 29 30 31 32 33 34 35 36 37 38 39 40 41 42 43 44 45 46 47 48 49 50

000
ASUS43 KTOP 261508
RWRKS

WEATHER ROUNDUP FOR KANSAS
NATIONAL WEATHER SERVICE GOODLAND KS
900 AM CST FRI DEC 26 2014

NOTE:  "FAIR" INDICATES FEW OR NO CLOUDS BELOW 12,000 FEET WITH NO
SIGNIFICANT WEATHER AND/OR OBSTRUCTIONS TO VISIBILITY.

KSZ001>006-013>018-027>032-041>047-261600-
NORTHWEST KANSAS

CITY           SKY/WX    TMP DP  RH WIND       PRES   REMARKS
GOODLAND       CLOUDY    23  21  92 N16       29.93F FOG     WCI  10
HAYS           CLOUDY    28  19  69 N15       29.99R WCI  17
HILL CITY      CLOUDY    28  22  78 N14       30.01R WCI  17
RUSSELL        CLOUDY    30  26  85 N16       29.97R WCI  19
$$

KSZ061>065-074>080-084>089-261600-
SOUTHWEST KANSAS

CITY           SKY/WX    TMP DP  RH WIND       PRES   REMARKS
DODGE CITY     CLOUDY    28  23  81 N18G26    29.91F WCI  15
ELKHART          N/A     27  19  72 N13         N/A  WCI  16
GARDEN CITY    CLOUDY    27  24  89 N16       29.93S WCI  15
GREAT BEND     CLOUDY    30  25  80 N20       29.97R WCI  18
LIBERAL        CLOUDY    30  23  74 N18       29.92S WCI  18
PRATT          CLOUDY    32  30  93 N15G21    29.94R WCI  22
$$

KSZ066>073-081>083-090>101-261600-
SOUTHEAST KANSAS

CITY           SKY/WX    TMP DP  RH WIND       PRES   REMARKS
CHANUTE        CLOUDY    45  41  86 S12       29.93R
COFFEYVILLE    PTSUNNY   48  43  82 S9        29.94S
HUTCHINSON     CLOUDY    34  30  85 N13       29.92R WCI  25
MEDICINE LODGE   N/A     34  31  88 N10       29.93R WCI  26
NEWTON         CLOUDY    32  27  80 N14       29.92R WCI  22
PARSONS        CLOUDY    47  43  86 S8        29.95R
WICHITA INTL   CLOUDY    34  29  82 N15       29.91R WCI  24
WICHITA JABRA  CLOUDY    34  30  85 N15       29.91R WCI  24
WICHITA MCCONL CLOUDY    36  30  79 N10       29.91R WCI  28
WINFIELD       PTSUNNY   44  39  82 S6        29.91R
$$

KSZ007>012-019>026-033>040-048>060-102>105-261600-
NORTHEAST KANSAS

CITY           SKY/WX    TMP DP  RH WIND       PRES   REMARKS
CONCORDIA      CLOUDY    31  28  89 N14       29.96F WCI  21
EMPORIA        CLOUDY    35  30  82 NW8       29.91R
LAWRENCE       CLOUDY    43  36  76 CALM      29.93R
MANHATTAN      CLOUDY    34  32  92 N8        29.95R FOG
MARYSVILLE     CLOUDY    32  32 100 N15       29.96R WCI  22
OLATHE IND     CLOUDY    45  38  76 S9        29.93R
OLATHE EXE     CLOUDY    45  39  79 S8        29.92R
SALINA         CLOUDY    35  30  82 N14       29.94S WCI  26
TOPEKA BILLARD CLOUDY    41  33  73 W5        29.93R
TOPEKA FORBES  CLOUDY    41  33  73 NW7       29.92R
$$


USA.gov is the U.S. government's official web portal to all federal, state and local government web resources and services.